Location: Dead Woman Crossing
(43.5369°N, 106.3228°W)
Time: 02:56:50
(UTC+00:00)

COSMOS 2251 DEB - Pass Details

Date: 02 December 2022
Orbit: 765 x 800 km, 74.0° (Epoch: 25 January)

Event Time Altitude Azimuth Distance (km) Brightness Sun altitude
Rises 02:30:13 0° 330° (NNW) 3,256 ? -32.0°
Reaches altitude 10° 02:32:48 10° 321° (NW) 2,320 ? -32.5°
Maximum altitude 02:37:26 33° 259° (W) 1,282 ? -33.3°
Enters shadow 02:40:23 19° 209° (SSW) 1,773 ? -33.8°
